Weather History for KMSP - September, 2012

Change the Weather History Date:

Friday, September 7, 2012

  Actual Average Record
Temperature  
Mean Temperature 64 °F 66 °F  
Max Temperature 72 °F 75 °F 98 °F (1976)
Min Temperature 55 °F 56 °F 40 °F (1956)
Degree Days  
Heating Degree Days 1 3  
Month to date heating degree days 1 14  
Since 1 July heating degree days 5 33  
Cooling Degree Days 0 3  
Month to date cooling degree days 64 27  
Year to date cooling degree days 1099 708  
Growing Degree Days 14 (Base 50)    
Moisture  
Dew Point 49 °F    
Average Humidity 60    
Maximum Humidity 84    
Minimum Humidity 36    
Precipitation  
Precipitation T in 0.10 in 2.16 in (1964)
Month to date precipitation 0.02 0.76  
Year to date precipitation 25.74 22.93  
Snow  
Snow 0.00 in 0.00 in 0.00 in ()
Month to date snowfall 0.0 0.0  
Since 1 July snowfall T 0.0  
Since 1 September snowfall 0.0 0.0  
Snow Depth 0.00 in    
Sea Level Pressure  
Sea Level Pressure 29.96 in    
Wind  
Wind Speed 12 mph (North)    
Max Wind Speed 24 mph    
Max Gust Speed 31 mph    
Visibility 10 miles    
Events Rain    
T = Trace of Precipitation, MM = Missing Value Source: NWS Daily Summary

Daily Weather History Graph

Daily Weather History Graph

Search for Another Location

Airport or City:

Trip Planner

Search our weather history database for the weather conditions in past years. The results will help you decide how hot, cold, wet, or windy it might be!

Date:

Astronomy

Sep. 07, 2012 Rise Set
Actual Time 6:42 AM CDT 7:37 PM CDT
Civil Twilight 6:12 AM CDT 8:07 PM CDT
Nautical Twilight 5:37 AM CDT 8:43 PM CDT
Astronomical Twilight 5:00 AM CDT 9:20 PM CDT
Moon 11:15 PM CDT (9/7) 1:54 PM CDT (9/7)
Length of Visible Light 13h 54m
Length of Day
12h 55m
Waning Gibbous, 58% of the Moon is Illuminated
Sep 7
Waning Gibbous
Sep 8
Last Quarter
Sep 15
New
Sep 22
First Quarter
Sep 29
Full

Hourly Weather History & Observations

Time (CDT) Temp. Dew Point Humidity Pressure Visibility Wind Dir Wind Speed Gust Speed Precip Events Conditions
12:53 AM 66.0 °F 53.1 °F 63% 29.87 in 10.0 mi ENE 8.1 mph - N/A   Mostly Cloudy
1:26 AM 64.4 °F 53.6 °F 68% 29.91 in 10.0 mi North 16.1 mph 21.9 mph N/A   Mostly Cloudy
1:53 AM 64.0 °F 54.0 °F 70% 29.89 in 10.0 mi NNE 9.2 mph - N/A   Mostly Cloudy
2:53 AM 61.0 °F 55.0 °F 81% 29.90 in 10.0 mi North 13.8 mph 23.0 mph N/A   Scattered Clouds
3:18 AM 60.8 °F 55.4 °F 82% 29.93 in 10.0 mi NNE 11.5 mph 19.6 mph N/A   Mostly Cloudy
3:42 AM 60.8 °F 53.6 °F 77% 29.92 in 10.0 mi NE 16.1 mph - N/A   Overcast
3:53 AM 61.0 °F 53.1 °F 75% 29.91 in 10.0 mi ENE 8.1 mph - N/A   Overcast
4:53 AM 61.0 °F 52.0 °F 72% 29.91 in 10.0 mi NE 10.4 mph - N/A   Overcast
5:53 AM 60.1 °F 54.0 °F 80% 29.93 in 10.0 mi NE 8.1 mph - 0.00 in Rain Light Rain
6:42 AM 59.0 °F 53.6 °F 82% 29.96 in 10.0 mi NNE 8.1 mph - 0.00 in   Overcast
6:53 AM 59.0 °F 54.0 °F 83% 29.97 in 10.0 mi North 5.8 mph - 0.00 in   Overcast
7:53 AM 59.0 °F 54.0 °F 83% 29.98 in 10.0 mi North 5.8 mph - 0.00 in   Mostly Cloudy
8:53 AM 61.0 °F 55.0 °F 81% 29.99 in 10.0 mi NNW 8.1 mph - N/A   Mostly Cloudy
9:53 AM 64.9 °F 53.1 °F 65% 29.97 in 10.0 mi North 8.1 mph - N/A   Scattered Clouds
10:53 AM 69.1 °F 48.9 °F 49% 29.97 in 10.0 mi North 17.3 mph 21.9 mph N/A   Scattered Clouds
11:53 AM 70.0 °F 48.0 °F 46% 29.97 in 10.0 mi NNW 16.1 mph - N/A   Scattered Clouds
12:53 PM 66.9 °F 46.0 °F 47% 29.96 in 10.0 mi NW 13.8 mph 24.2 mph N/A   Mostly Cloudy
1:53 PM 68.0 °F 42.1 °F 39% 29.97 in 10.0 mi WNW 17.3 mph 23.0 mph N/A   Mostly Cloudy
2:53 PM 70.0 °F 41.0 °F 35% 29.96 in 10.0 mi NW 17.3 mph 23.0 mph N/A   Scattered Clouds
3:53 PM 66.9 °F 43.0 °F 42% 29.97 in 10.0 mi NW 17.3 mph 26.5 mph N/A   Mostly Cloudy
4:53 PM 64.9 °F 42.1 °F 43% 29.99 in 10.0 mi NW 21.9 mph 28.8 mph N/A   Mostly Cloudy
5:53 PM 64.9 °F 41.0 °F 42% 30.00 in 10.0 mi NNW 17.3 mph 25.3 mph N/A   Mostly Cloudy
6:53 PM 62.1 °F 41.0 °F 46% 30.01 in 10.0 mi NNW 19.6 mph 28.8 mph N/A   Mostly Cloudy
7:53 PM 60.1 °F 43.0 °F 53% 30.01 in 10.0 mi NNW 8.1 mph - N/A   Scattered Clouds
8:53 PM 60.1 °F 44.1 °F 55% 30.02 in 10.0 mi NW 8.1 mph - N/A   Mostly Cloudy
9:53 PM 59.0 °F 45.0 °F 60% 30.02 in 10.0 mi NW 9.2 mph - N/A   Partly Cloudy
10:53 PM 57.9 °F 44.1 °F 60% 30.03 in 10.0 mi NW 8.1 mph - N/A   Clear
11:53 PM 57.0 °F 45.0 °F 64% 30.03 in 10.0 mi NW 9.2 mph - N/A   Clear